Content
SEND FEEDBACK

Daily
Averages
Monthly
Summary
Greece

ATHENS, GREECE


Home > Europe > Greece
Elevation: 69 feet     Latitude: 37 54N     Longitude: 023 44E

WEATHER
 
SELECT A DAY
Number of Records: 77,167;   Date Range: 4/14/01 - 9/15/14
 
SHARE

PRINT THIS DATA

[ ← Previous Day ]
WEATHER ALMANAC - FEBRUARY 3, 2013
[ Next Day → ]
[ °C ]   °F
Weather ElementAverageHighLow
Temperature61.1 °F66.2 °F (11:50 am)57.2 °F (12:50 am)
Dewpoint49.5 °F51.8 °F (1:50 am)46.4 °F (10:50 am)
Humidity66.4 %77 % (12:50 am)49 % (11:50 am)
Barometer29.85 in29.95 in (10:50 pm)29.77 in (4:50 pm)
Wind Speed25.1 mph38 mph (1:20 pm)
Wind Gust50.6 mph (1:20 pm)
Weather ElementAverage
Visibility6.2 mi
Wind DirectionS (185.3 °)

Weather ElementTotal
Precipitation---
Heating Degree Days3.3 (Base 65)
Growing Degree Days11.7 (Base 50)
Averaged from 47 records on February 3, 2013
WEATHER CONDITIONS BREAKOUT
WIND DIRECTION BREAKOUT
WEATHER BY HOUR - FEBRUARY 3, 2013
[ °C ]   °F
Local TimeTemperatureDewpointHumidityBarometerVisibilityWind DirectionWind SpeedGust SpeedPrecipitationEventsConditions
12:50 AM57.2 °F50.0 °F77 %29.83 in6.2 miSSW (200°)19.6 mphMostly Cloudy
1:20 AM57.2 °F48.2 °F72 %29.83 in6.2 miSSW (200°)16.1 mphMostly Cloudy
1:50 AM59.0 °F51.8 °F77 %29.83 in6.2 miSouth (190°)19.6 mphMostly Cloudy
2:20 AM59.0 °F51.8 °F77 %29.83 in6.2 miSouth (190°)21.9 mphMostly Cloudy
2:50 AM59.0 °F51.8 °F77 %29.83 in6.2 miSouth (190°)26.5 mphMostly Cloudy
3:20 AM59.0 °F51.8 °F77 %29.83 in6.2 miSouth (190°)24.2 mphMostly Cloudy
3:50 AM59.0 °F51.8 °F77 %29.83 in6.2 miSouth (190°)26.5 mphMostly Cloudy
4:20 AM59.0 °F51.8 °F77 %29.83 in6.2 miSouth (190°)26.5 mphMostly Cloudy
4:50 AM59.0 °F51.8 °F77 %29.83 in6.2 miSouth (190°)25.3 mphMostly Cloudy
5:20 AM59.0 °F51.8 °F77 %29.83 in6.2 miSouth (190°)26.5 mphMostly Cloudy
5:50 AM59.0 °F51.8 °F77 %29.83 in6.2 miSSW (200°)27.6 mphMostly Cloudy
6:20 AM59.0 °F51.8 °F77 %29.83 in6.2 miSouth (190°)24.2 mphScattered Clouds
6:50 AM59.0 °F50.0 °F72 %29.83 in6.2 miSSW (200°)25.3 mphScattered Clouds
7:20 AM59.0 °F50.0 °F72 %29.83 in6.2 miSouth (180°)24.2 mph35.7 mphScattered Clouds
7:50 AM59.0 °F50.0 °F72 %29.83 in6.2 miSouth (180°)23.0 mphScattered Clouds
8:20 AM59.0 °F50.0 °F72 %29.86 in6.2 miSouth (190°)23.0 mphScattered Clouds
8:50 AM60.8 °F48.2 °F63 %29.86 in6.2 miSouth (180°)13.8 mphScattered Clouds
9:20 AM62.6 °F48.2 °F59 %29.86 in6.2 miSouth (180°)23.0 mphScattered Clouds
9:50 AM62.6 °F48.2 °F59 %29.86 in6.2 miSouth (180°)23.0 mph35.7 mphScattered Clouds
10:20 AM64.4 °F48.2 °F56 %29.86 in6.2 miSouth (170°)26.5 mphScattered Clouds
10:50 AM64.4 °F46.4 °F52 %29.86 in6.2 miSouth (190°)29.9 mphScattered Clouds
11:20 AM64.4 °F46.4 °F52 %29.83 in6.2 miSouth (180°)28.8 mph41.4 mphScattered Clouds
11:50 AM66.2 °F46.4 °F49 %29.83 in6.2 miSouth (190°)36.8 mphScattered Clouds
12:20 PM64.4 °F46.4 °F52 %29.80 in6.2 miSouth (190°)36.8 mph48.3 mphMostly Cloudy
12:50 PM66.2 °F46.4 °F49 %29.80 in6.2 miSouth (190°)36.8 mphMostly Cloudy
1:20 PM66.2 °F48.2 °F52 %29.80 in6.2 miSouth (190°)38.0 mph50.6 mphMostly Cloudy
1:50 PM66.2 °F46.4 °F49 %29.83 in6.2 miSouth (190°)33.4 mphMostly Cloudy
2:20 PM66.2 °F48.2 °F52 %29.80 in6.2 miSSW (200°)32.2 mph43.7 mphMostly Cloudy
2:50 PM66.2 °F48.2 °F52 %29.80 in6.2 miSSW (200°)33.4 mphMostly Cloudy
3:20 PM64.4 °F48.2 °F56 %29.80 in6.2 miSouth (190°)29.9 mphMostly Cloudy
3:50 PM64.4 °F48.2 °F56 %29.80 in6.2 miSouth (190°)32.2 mph43.7 mphMostly Cloudy
4:20 PM64.4 °F48.2 °F56 %29.80 in6.2 miSouth (190°)34.5 mphScattered Clouds
4:50 PM62.6 °F48.2 °F59 %29.77 in6.2 miSouth (190°)33.4 mphScattered Clouds
5:20 PM62.6 °F48.2 °F59 %29.80 in6.2 miSSW (200°)29.9 mphScattered Clouds
5:50 PM60.8 °F50.0 °F68 %29.80 in6.2 miSouth (190°)25.3 mphScattered Clouds
6:20 PM60.8 °F50.0 °F68 %29.83 in6.2 miSSW (200°)31.1 mphScattered Clouds
6:50 PM60.8 °F50.0 °F68 %29.86 in6.2 miSouth (190°)28.8 mphScattered Clouds
7:20 PM59.0 °F50.0 °F72 %29.86 in6.2 miSouth (190°)28.8 mphScattered Clouds
7:50 PM59.0 °F50.0 °F72 %29.89 in6.2 miSouth (190°)21.9 mphPartly Cloudy
8:20 PM59.0 °F50.0 °F72 %29.89 in6.2 miSouth (190°)20.7 mphPartly Cloudy
8:50 PM59.0 °F50.0 °F72 %29.92 in6.2 miSouth (190°)18.4 mphPartly Cloudy
9:20 PM59.0 °F50.0 °F72 %29.92 in6.2 miSouth (190°)19.6 mphPartly Cloudy
9:50 PM59.0 °F50.0 °F72 %29.92 in6.2 miSouth (190°)20.7 mphPartly Cloudy
10:20 PM59.0 °F50.0 °F72 %29.92 in6.2 miSouth (190°)15.0 mphPartly Cloudy
10:50 PM59.0 °F51.8 °F77 %29.95 in6.2 miSSW (200°)9.2 mphScattered Clouds
11:20 PM57.2 °F50.0 °F77 %29.95 in6.2 miSSE (150°)4.6 mphScattered Clouds
11:50 PM59.0 °F50.0 °F72 %29.95 in6.2 miVariable2.3 mphScattered Clouds
Hourly data recorded from LGAV, located miles away from Athens, Greece







STORIES FROM OUR PARTNERS